GFSNGP_prec_cloud_003.txt.gz
Cloud_Cover
5 5 43 32 5 94 16 5 93 48 20 5 5 32 73 78 59 93 92 49 14 86 48 6 12 11 81 75 13 99 97 38 39 87 100 100 87 100 100 100 100 100 100 100
72 2 5 20 5 5 5 5 6 31 48 51 64 19 6 58 80 75 38 5 5 12 14 5 19 99 24 27 64 5 7 86 100 100 100 100 100 100 100 100 100 100 100 100
66 95 44 100 9 5 39 23 74 99 63 18 5 5 3 0 5 3 5 14 99 71 98 100 100 100 100 90 27 5 29 12 51 100 92 100 100 100 100 100 100 100 100 100
30 82 80 100 6 64 100 100 5 5 5 5 5 2 3 5 5 30 82 97 100 100 100 100 100 100 100 100 100 79 84 93 96 94 92 97 100 100 100 100 100 100 100 100
98 94 44 91 5 5 14 100 15 48 5 5 47 11 5 26 96 97 78 53 84 100 100 100 100 100 47 61 43 100 56 100 100 100 98 100 100 100 100 100 100 94 93 98
93 100 100 11 5 5 8 7 60 80 99 66 100 99 38 100 100 87 100 100 100 100 98 100 100 100 100 8 72 97 73 93 93 100 100 100 100 100 100 100 100 100 100 100
100 100 51 5 5 5 64 97 97 100 85 96 100 100 100 100 100 100 100 100 100 98 99 96 99 99 53 7 5 59 5 42 53 100 71 66 100 100 100 100 99 85 58 42
91 100 58 5 90 70 88 100 99 43 44 98 100 100 100 100 100 99 100 100 100 65 27 90 88 100 29 8 6 5 6 56 84 76 95 100 100 84 70 48 21 6 15 5
99 67 96 100 100 100 94 88 100 100 100 100 100 100 100 100 100 100 100 100 99 100 20 98 74 100 100 98 66 40 79 42 86 96 84 13 17 8 5 5 6 38 34 13
100 73 100 99 50 100 100 100 100 100 100 100 100 100 94 100 100 100 98 100 92 5 5 85 100 100 96 34 41 5 5 41 64 43 5 5 5 5 5 5 30 53 14 33
82 83 68 100 100 100 100 100 100 100 100 100 100 98 100 100 100 100 100 100 100 100 84 38 19 5 5 5 5 5 20 46 7 5 5 18 5 11 19 46 61 48 12 96
100 98 100 100 100 100 100 89 70 100 100 100 100 28 36 17 79 67 100 100 98 19 5 11 33 5 5 5 5 5 6 5 5 5 70 95 15 66 95 6 5 5 5 99
100 100 100 100 100 100 100 100 100 88 68 7 11 100 71 69 89 100 100 99 60 56 94 87 14 5 5 5 5 5 5 5 5 20 6 7 22 62 78 5 89 26 6 96
100 99 100 84 93 95 98 58 50 100 100 100 100 89 39 69 9 29 100 68 100 100 100 35 5 5 40 46 12 5 6 39 80 74 52 50 62 99 76 88 99 100 96 75
88 88 99 89 28 79 99 69 63 94 32 32 15 5 5 5 5 80 100 99 100 100 100 54 52 76 84 6 5 5 60 98 50 35 56 60 77 93 71 94 100 99 94 22
80 90 75 95 100 100 100 100 68 18 5 7 38 5 5 31 95 100 100 100 100 100 100 100 98 100 100 100 99 99 100 67 69 91 94 73 73 68 79 100 100 100 99 96
5 80 100 99 8 29 98 100 100 94 80 59 8 63 56 86 100 98 98 98 100 100 100 100 100 100 100 94 100 97 71 42 94 100 93 83 67 75 78 93 100 100 98 100
43 70 34 82 100 84 46 93 78 24 5 5 30 100 97 100 94 100 100 99 95 98 100 100 100 64 91 90 99 90 65 71 98 80 83 83 75 79 84 94 100 100 100 100
100 99 100 100 100 38 5 5 4 6 59 37 50 71 65 100 92 100 100 100 85 100 100 100 100 100 100 100 100 100 99 94 100 93 80 84 71 75 81 100 100 100 100 100
100 100 85 15 5 1 2 1 28 100 100 100 100 99 96 100 69 100 100 100 100 100 100 100 100 100 100 100 89 99 100 97 100 91 91 81 68 97 100 92 100 100 100 98
90 5 2 0 0 0 4 4 8 51 54 99 100 100 100 100 100 100 100 100 100 100 100 100 100 100 100 100 100 96 100 100 100 91 99 84 66 75 100 99 100 100 100 99
2 0 0 0 0 0 0 0 5 45 100 80 99 100 100 100 100 100 100 100 100 100 100 100 100 100 100 100 100 100 100 100 100 100 87 97 94 75 77 82 100 100 100 100
0 0 0 0 2 5 5 5 5 15 76 100 100 97 100 100 100 100 100 100 100 100 100 100 100 100 100 100 100 100 100 100 100 100 89 90 100 100 84 98 75 100 98 100
0 0 4 5 5 5 5 5 5 5 13 94 97 72 67 90 100 100 100 100 100 100 100 100 100 99 100 100 100 100 100 100 100 100 90 93 100 100 95 68 90 63 100 100
1 5 5 8 20 8 6 8 14 9 95 97 73 73 82 84 91 99 100 100 100 100 100 100 99 99 97 100 100 100 100 100 100 94 85 85 75 85 85 76 66 57 64 89
5 5 40 89 27 63 92 94 100 75 100 100 87 51 75 79 98 100 100 100 100 100 100 100 100 100 98 89 79 99 100 100 96 93 86 86 96 82 81 88 85 64 58 72
5 51 22 45 75 42 91 100 100 100 99 95 72 47 76 87 100 100 100 100 100 100 100 100 100 100 95 83 95 88 76 98 91 82 80 84 89 95 99 93 100 100 87 78

GFSNGP_prec_cloud_006.txt.gz
Cloud_Cover
5 5 5 57 5 5 13 6 94 61 47 46 48 9 25 7 28 28 7 56 13 5 16 78 99 95 100 100 100 97 100 100 100 100 100 100 100 99 79 90 100 100 100 100
5 5 5 10 5 5 5 5 13 8 47 5 38 12 5 5 6 10 5 9 69 99 100 100 94 99 100 100 100 100 92 100 100 100 100 100 85 83 100 100 100 100 100 100
56 58 50 99 16 2 5 6 8 5 75 6 9 5 5 8 6 5 16 99 100 100 100 93 94 81 89 100 100 100 100 84 85 84 86 100 87 88 52 100 100 100 100 100
61 82 58 98 37 6 53 94 33 13 7 5 5 16 5 18 36 96 100 100 100 100 99 100 100 99 100 94 100 100 30 42 14 46 98 100 99 85 94 90 74 100 100 100
91 99 34 93 20 10 32 24 5 5 5 5 17 32 94 100 100 100 100 100 100 98 100 73 85 89 93 44 74 35 60 5 5 14 6 86 97 81 100 100 100 100 99 83
99 100 100 60 5 5 5 6 5 22 59 63 80 51 93 100 100 100 100 100 100 97 91 100 100 100 100 100 100 100 94 5 52 5 5 5 5 75 100 100 100 99 100 99
100 100 39 5 6 83 100 99 95 100 78 100 100 100 100 100 100 100 100 84 98 100 100 100 100 100 100 38 97 92 84 92 93 24 5 5 7 45 76 60 36 16 9 5
90 100 68 64 79 95 70 36 68 98 99 95 100 100 100 100 100 90 100 97 99 100 100 63 47 88 92 100 100 82 68 62 68 61 5 5 15 21 5 5 5 5 44 7
100 52 70 11 92 99 100 76 54 100 100 100 100 100 84 100 100 78 97 100 100 63 99 100 25 7 4 12 12 9 6 58 80 16 5 5 4 4 5 5 40 37 68 44
100 96 97 100 93 80 62 94 100 100 100 100 100 100 100 100 100 84 25 98 100 100 100 76 5 37 38 9 82 64 5 5 5 5 8 5 5 7 11 16 64 80 47 80
100 34 40 43 74 100 100 100 100 100 100 93 85 46 15 5 33 78 100 100 100 91 16 6 81 93 100 97 80 7 5 5 5 5 5 5 16 82 69 33 63 97 19 92
15 100 100 100 96 100 100 100 100 97 70 26 44 8 6 7 98 80 53 73 26 5 5 98 100 100 100 89 84 8 49 5 5 6 42 14 5 6 46 11 21 5 46 78
64 100 100 100 100 100 100 100 95 73 64 5 27 24 57 50 5 23 6 5 7 59 69 94 100 100 80 66 7 55 76 10 56 34 75 58 54 24 75 46 98 19 33 97
100 100 98 93 100 100 100 100 60 5 55 84 100 62 71 45 8 5 5 18 67 76 93 88 84 51 70 8 80 100 59 29 97 67 67 71 77 77 76 89 99 100 100 97
100 52 10 73 88 61 40 51 42 66 72 62 90 48 10 5 5 5 13 100 90 100 92 43 12 66 51 91 100 98 92 94 22 69 73 73 76 75 69 89 74 100 100 91
5 17 49 40 30 61 74 99 91 58 51 62 77 72 6 12 8 5 33 90 100 97 78 77 98 86 92 100 100 86 90 23 6 58 73 81 71 75 74 93 78 100 100 100
65 83 99 79 72 91 20 5 34 54 7 5 1 12 100 100 88 5 81 94 100 96 97 100 99 100 100 100 100 93 74 60 70 96 73 91 76 81 82 94 95 100 100 100
67 92 97 100 53 5 5 5 5 4 0 1 42 94 100 100 85 26 97 87 100 100 100 100 100 100 100 100 100 100 100 97 79 81 82 84 80 78 96 94 97 100 100 100
5 21 23 8 9 51 81 27 1 0 12 24 100 100 100 100 99 99 98 99 100 100 100 100 100 100 100 100 100 100 100 100 98 98 92 89 78 77 99 100 84 92 100 100
55 74 78 38 16 3 0 0 0 2 3 5 91 100 100 100 86 87 88 100 100 100 100 100 100 100 100 100 100 100 100 100 99 93 100 99 94 100 100 95 94 95 100 100
5 0 0 0 0 0 1 3 5 5 5 5 49 100 100 100 99 96 96 98 100 100 100 100 100 100 100 100 100 100 100 100 100 100 100 100 100 99 100 99 100 100 82 100
0 0 0 0 1 4 5 5 5 6 6 5 100 100 100 100 100 98 77 90 100 100 100 100 100 100 100 100 100 100 100 100 100 100 100 100 94 93 96 91 100 96 98 93
0 0 0 0 5 5 5 5 5 5 5 21 58 100 100 93 83 92 97 72 83 92 100 100 100 100 100 100 100 100 100 100 100 100 100 100 100 98 100 98 96 100 98 89
0 0 2 5 5 5 7 5 5 5 38 71 97 99 100 77 88 83 79 88 100 81 95 96 100 100 100 100 100 100 100 100 100 100 100 100 99 84 96 100 100 100 93 89
0 3 5 5 5 10 10 6 73 94 95 100 88 100 79 78 85 76 78 90 100 99 100 100 100 97 96 100 100 99 100 100 100 100 98 100 100 100 92 98 80 87 99 99
3 5 5 5 17 95 83 82 100 100 100 100 100 86 78 91 100 93 100 100 100 100 98 99 98 99 99 100 100 97 100 85 95 100 94 87 85 86 100 100 94 76 77 100
7 65 95 94 22 53 100 100 100 100 100 100 100 96 52 99 100 100 100 100 100 100 96 98 100 100 100 100 100 100 98 83 84 84 100 100 96 83 88 96 90 88 85 86

GFSNGP_prec_cloud_009.txt.gz
Cloud_Cover
5 5 5 5 1 1 5 5 40 100 80 5 29 5 8 5 5 5 6 25 9 92 100 100 100 100 100 100 100 100 100 93 60 48 100 96 97 100 100 100 100 100 93 100
5 5 5 5 1 5 5 5 7 8 5 5 5 5 5 5 14 67 73 96 100 100 100 100 100 100 100 100 100 77 100 100 99 73 22 15 5 5 8 98 100 100 100 100
100 52 5 85 5 5 5 5 5 5 5 5 5 24 26 70 87 66 99 100 100 100 100 100 100 77 92 43 64 34 22 16 12 13 5 5 5 5 5 5 5 5 5 51
67 17 19 12 4 5 5 5 5 5 7 68 45 67 70 46 98 100 100 100 100 100 100 100 39 10 69 60 62 16 5 5 72 83 48 5 5 5 5 5 5 5 6 23
92 98 22 1 5 5 5 12 8 6 24 59 48 72 100 100 100 100 100 100 100 100 100 88 32 5 6 5 5 22 82 100 100 78 70 5 5 5 5 5 5 31 30 6
90 100 90 1 5 5 10 42 66 51 36 100 99 100 100 100 100 100 100 100 100 100 100 79 58 42 9 6 23 100 100 100 100 99 23 5 5 5 5 5 5 6 5 5
100 100 18 5 12 75 98 96 100 100 100 100 100 100 100 100 100 100 100 100 96 75 99 100 100 86 5 10 5 36 59 67 96 54 63 5 5 5 5 4 5 5 5 5
84 95 61 48 100 99 85 98 87 100 91 100 100 100 100 100 100 100 90 99 99 100 100 100 100 61 20 4 5 5 5 52 32 10 5 5 5 3 5 5 9 66 78 97
100 35 60 64 81 85 100 100 100 100 100 100 100 90 98 100 95 100 100 100 100 100 100 100 100 13 5 5 5 5 5 38 5 5 5 5 5 5 70 85 99 97 100 100
88 28 34 54 51 87 100 100 61 100 100 96 37 10 99 98 93 89 99 100 98 89 98 93 5 80 94 71 95 80 72 13 5 5 5 5 50 69 100 100 100 100 100 100
97 34 59 100 100 100 100 100 85 19 43 7 68 95 100 69 5 15 5 20 29 34 5 5 33 98 100 100 100 100 72 5 5 52 5 55 35 5 93 98 95 100 100 100
91 100 100 100 100 100 100 100 100 42 48 100 54 18 9 5 14 18 5 7 5 5 12 96 100 100 100 100 100 79 19 5 5 5 40 61 7 60 23 9 9 5 45 88
100 100 100 100 100 100 50 6 18 28 75 7 13 41 6 5 6 5 5 5 5 5 90 100 100 100 100 100 100 84 5 5 7 72 6 5 37 91 100 54 69 6 48 97
100 99 69 100 71 30 35 30 52 21 53 76 5 5 5 5 5 5 5 5 5 5 98 98 94 100 100 100 100 89 91 90 77 9 5 9 64 33 74 87 95 100 95 96
100 91 83 95 66 17 23 18 89 97 5 5 5 5 5 5 5 5 5 5 5 35 100 99 100 100 100 100 100 100 100 66 18 10 29 23 36 20 84 96 100 100 100 97
100 93 89 100 100 44 75 100 99 41 6 5 5 0 2 58 94 91 52 14 14 42 100 100 100 100 100 100 100 100 96 96 27 85 38 67 76 83 100 98 100 100 100 100
90 100 93 61 55 100 100 96 55 34 5 5 1 2 52 100 100 100 100 38 69 72 99 100 100 100 100 100 100 100 100 100 89 15 11 86 85 96 93 99 100 100 100 100
91 44 53 100 18 5 6 74 82 27 32 0 3 7 96 100 100 100 100 98 83 80 100 99 100 100 100 100 100 100 100 100 99 74 63 87 87 80 76 92 100 100 100 100
54 99 100 37 5 5 5 4 4 4 5 3 5 5 11 99 100 100 100 79 75 92 91 75 89 100 100 100 100 100 100 100 99 100 76 62 91 75 74 79 93 100 100 100
98 42 5 5 6 22 4 5 5 5 5 5 5 5 41 78 100 100 98 76 93 69 78 90 100 100 100 100 100 100 100 100 99 98 96 95 100 99 92 37 44 100 100 100
100 5 5 6 98 8 4 5 5 5 5 5 7 12 74 99 100 100 99 77 100 74 100 100 100 100 100 100 100 100 100 100 100 93 94 99 100 99 100 82 79 100 100 100
29 9 75 94 14 5 5 5 5 5 5 5 6 98 100 100 100 97 86 66 56 65 100 97 97 92 100 100 100 93 100 99 98 96 94 97 100 100 100 100 96 100 100 100
87 84 29 6 3 5 5 5 5 5 6 28 58 96 100 100 99 100 99 64 72 82 91 61 53 84 100 100 100 92 75 100 96 96 95 93 99 100 100 100 100 100 100 97
96 12 5 0 5 5 6 5 5 5 46 66 100 100 100 91 95 92 86 96 100 100 70 45 61 96 96 100 93 100 98 100 92 77 89 84 99 100 100 100 100 100 97 81
5 1 0 7 28 45 50 7 8 71 100 100 100 100 100 100 100 89 100 100 100 96 92 97 97 93 99 86 76 90 100 95 96 99 100 93 92 98 100 100 100 99 97 76
0 0 6 41 81 93 79 79 100 100 100 100 100 100 100 94 100 100 100 100 100 87 81 98 93 78 96 81 82 77 86 84 87 88 92 100 95 98 99 100 100 100 99 79
4 67 5 5 5 14 100 100 100 100 100 100 100 100 100 100 100 100 98 100 100 100 92 93 89 78 94 100 94 86 91 88 86 93 99 100 99 99 99 95 98 98 99 93

GFSNGP_prec_cloud_012.txt.gz
Cloud_Cover
5 5 5 5 0 0 0 5 73 9 6 14 5 36 45 6 65 100 76 65 41 59 99 84 99 100 100 100 100 100 95 94 60 16 59 93 69 37 14 7 5 5 5 5
4 5 5 4 0 5 4 3 5 5 40 6 5 5 24 74 92 98 90 35 100 97 100 100 100 100 100 100 100 99 5 66 53 50 90 71 5 5 5 5 5 5 5 5
44 5 6 17 5 5 5 5 5 16 57 5 27 82 100 64 65 83 100 58 82 100 100 100 100 100 100 100 92 18 40 77 94 100 78 77 88 99 5 5 5 5 5 8
48 68 24 5 16 41 40 5 5 10 44 6 36 100 100 31 99 100 94 100 100 100 100 100 100 100 100 99 89 25 77 94 100 92 95 99 75 14 5 5 5 5 36 60
95 62 57 6 5 5 6 5 5 5 34 33 87 52 100 98 100 100 100 99 97 100 100 100 89 11 5 5 5 89 100 100 100 64 10 5 5 5 5 5 5 5 90 100
88 62 86 13 5 5 9 75 77 71 26 51 100 100 100 100 100 100 100 96 38 80 98 5 5 5 7 33 9 11 66 14 5 5 5 6 34 5 5 6 72 94 93 92
95 93 26 5 10 58 41 83 74 70 100 100 100 100 100 100 80 20 7 23 94 38 3 5 5 5 72 82 71 99 100 28 34 39 10 5 5 5 83 98 100 100 100 98
83 100 91 45 92 100 25 10 85 96 100 100 100 92 96 32 7 5 40 31 6 0 5 17 5 31 21 56 90 100 100 100 85 97 5 5 42 55 100 100 100 100 100 100
7 5 91 100 100 52 5 72 100 100 100 100 100 68 38 5 12 10 5 5 5 5 8 5 5 6 95 87 97 100 100 100 100 100 35 73 100 92 100 100 100 100 100 100
38 5 76 82 70 27 58 96 100 96 92 74 5 5 7 16 5 5 28 6 27 49 3 2 5 39 99 95 100 100 100 100 100 100 72 78 99 100 100 100 100 100 100 100
55 23 64 80 81 80 94 100 98 90 41 5 5 23 5 4 5 14 7 41 56 5 5 5 5 67 100 100 100 100 100 100 100 99 90 88 96 94 91 100 83 95 99 100
98 89 99 100 99 100 100 83 78 33 49 24 4 0 5 8 94 10 8 5 4 5 5 10 74 97 100 100 100 100 100 100 100 60 94 100 97 95 98 67 10 5 13 95
54 100 100 100 75 68 80 80 23 90 17 5 5 5 5 5 5 5 5 5 13 84 94 78 100 100 100 100 100 100 100 100 87 99 100 100 100 100 100 100 96 70 20 95
100 100 100 97 99 19 44 5 5 5 5 5 9 93 5 10 5 5 5 7 71 81 100 94 96 79 99 100 100 100 100 100 91 100 100 100 100 100 100 100 100 100 100 54
93 100 100 85 11 44 76 20 5 5 26 61 91 5 5 24 5 5 6 61 100 98 100 99 97 97 100 99 100 100 100 100 97 100 100 96 100 100 100 100 100 100 100 94
90 84 5 38 77 25 33 14 18 46 30 49 5 36 40 5 5 6 96 100 100 69 73 74 89 73 90 85 95 100 100 94 65 100 100 100 100 100 100 100 100 100 100 100
59 29 28 68 99 79 32 57 92 74 29 5 6 6 5 5 54 76 100 100 100 94 98 100 100 100 68 93 100 100 100 100 99 100 100 100 100 100 100 100 100 100 100 98
24 51 76 9 12 44 74 56 6 20 37 6 5 5 5 5 13 16 100 100 100 92 100 100 78 88 100 97 96 100 100 98 100 100 100 100 98 100 100 100 100 100 100 100
45 28 5 5 15 53 7 5 5 50 82 30 10 15 18 17 23 63 100 100 99 100 96 52 53 100 100 94 100 100 100 100 100 100 100 100 100 100 100 100 100 100 100 100
5 8 47 89 68 24 18 6 5 60 88 7 10 58 57 54 87 100 100 100 100 91 34 83 96 100 100 97 94 100 100 100 100 100 100 100 100 100 100 100 100 100 100 100
6 36 24 5 25 60 24 38 27 5 5 5 31 54 59 71 74 96 100 100 99 75 50 99 93 95 100 100 100 100 100 100 100 100 100 100 100 100 100 100 100 100 100 100
11 22 33 74 94 91 90 50 17 6 5 5 24 58 90 95 90 82 100 99 99 75 64 100 100 94 99 100 100 100 100 100 100 100 100 100 100 100 100 100 100 100 100 100
96 74 100 66 40 97 100 15 5 19 10 44 99 100 100 100 100 99 100 99 92 92 67 100 88 100 100 95 100 100 100 99 100 100 100 100 100 100 100 100 100 100 100 100
100 100 98 90 91 73 17 5 29 84 62 97 100 100 100 100 82 98 100 83 78 99 88 99 87 69 73 83 100 100 100 100 100 100 100 98 99 100 100 100 100 100 100 98
100 98 100 100 92 6 5 5 92 100 100 60 100 100 100 100 100 100 100 99 73 95 98 94 96 99 100 100 97 100 100 100 100 99 89 99 100 100 100 100 100 100 100 100
55 68 27 5 5 5 7 36 93 99 71 86 100 100 98 100 100 100 100 100 87 93 92 99 98 98 100 98 97 98 100 100 100 100 100 100 100 100 100 100 100 100 100 100
5 5 5 5 5 12 49 69 99 55 79 100 100 100 100 100 100 100 100 100 100 99 99 100 100 89 88 100 99 100 99 98 97 100 100 100 100 100 100 100 100 100 100 100

GFSNGP_prec_cloud_015.txt.gz
Cloud_Cover
0 0 0 5 5 5 5 16 88 34 99 100 100 67 23 77 98 96 100 100 97 38 56 98 100 100 100 82 84 95 98 44 5 68 95 100 100 99 97 73 5 5 5 5
5 0 0 0 0 5 5 26 5 80 99 100 48 89 88 26 57 99 12 5 61 100 100 100 92 78 86 86 13 5 5 28 79 98 99 100 100 97 93 5 5 5 5 24
9 7 5 9 13 5 32 84 96 98 97 100 59 100 98 99 78 9 5 74 79 78 82 91 91 65 100 99 100 91 98 100 89 76 100 100 100 100 100 24 7 62 95 100
16 68 90 48 48 7 6 5 85 100 99 85 30 85 55 66 75 22 8 23 78 92 97 74 6 5 100 100 100 100 100 100 86 97 100 100 100 100 100 100 100 100 100 98
72 8 61 62 16 5 5 5 14 68 52 64 77 6 59 43 18 92 99 99 100 96 28 5 5 50 100 100 100 100 100 70 82 97 99 100 100 100 100 100 100 100 92 90
73 36 24 11 97 91 16 40 52 94 85 97 63 63 68 52 97 90 97 71 5 15 5 5 5 5 5 23 100 100 100 100 40 96 100 100 100 100 100 100 100 30 23 97
86 73 5 6 5 5 30 62 68 21 35 39 79 46 57 61 74 98 65 41 6 32 27 5 5 5 5 18 100 100 100 98 50 90 100 100 100 100 100 100 81 64 15 82
71 92 86 22 60 74 35 56 98 31 84 95 97 92 70 79 99 74 17 5 5 5 5 5 5 5 5 21 31 29 66 27 66 100 100 100 100 100 100 91 98 65 100 85
52 43 86 100 100 100 96 70 86 76 100 100 88 97 68 38 6 5 5 5 5 5 5 5 11 68 83 91 49 89 62 85 100 100 100 100 100 100 99 100 100 100 100 100
45 73 96 100 100 100 94 84 22 100 44 55 78 13 5 5 5 5 5 5 5 5 10 89 100 100 100 45 91 100 100 100 100 100 100 100 100 100 100 98 97 100 100 100
92 51 87 43 64 64 100 96 100 88 29 47 38 6 5 15 21 24 5 5 5 66 100 100 100 100 96 99 95 97 100 99 100 100 100 99 68 93 75 98 53 47 59 95
68 94 66 78 100 65 100 94 86 35 21 7 5 5 12 39 9 5 5 5 73 88 88 88 48 98 88 100 89 50 84 90 99 93 98 94 93 98 95 6 5 5 5 12
82 53 42 65 100 100 97 18 6 5 5 5 16 5 13 43 5 5 5 9 5 23 66 63 100 100 96 100 85 99 85 91 76 100 100 100 100 100 100 100 67 66 78 5
37 57 39 100 99 61 92 46 16 5 5 5 5 5 5 5 5 5 5 5 16 10 85 100 100 100 65 100 86 80 100 100 99 100 100 100 100 100 100 100 99 100 100 66
70 76 100 93 55 78 76 8 11 45 71 49 28 16 28 5 5 5 9 40 36 98 78 96 89 63 98 80 60 85 96 100 100 100 100 100 100 100 100 100 100 100 100 100
38 99 56 48 97 91 96 89 100 83 6 5 16 8 8 5 6 45 10 90 100 100 100 96 92 69 98 85 86 82 85 100 99 100 100 100 100 100 100 100 100 100 100 100
93 75 86 100 100 100 100 100 10 5 38 9 5 5 5 11 24 8 5 50 100 100 88 100 100 100 100 84 100 96 100 100 100 100 100 100 100 100 100 100 100 100 100 88
99 100 100 100 100 100 85 5 9 5 6 5 5 10 43 82 72 68 72 87 100 100 92 100 100 100 95 79 98 90 99 100 100 100 100 100 100 100 100 100 100 100 100 100
100 97 95 100 71 18 5 5 5 5 5 14 18 19 34 95 99 24 43 100 100 100 80 63 77 5 84 100 100 99 100 100 100 100 100 100 100 100 100 100 100 100 100 100
55 16 6 5 5 5 5 5 45 5 5 7 34 18 20 58 44 92 93 100 100 98 91 84 66 79 78 98 99 100 100 100 100 100 100 100 100 100 100 100 100 100 100 100
5 5 5 5 5 22 83 21 30 14 8 51 59 15 83 100 100 95 88 85 86 100 74 100 81 92 96 90 99 100 100 100 100 100 100 100 100 100 100 100 100 100 100 100
37 5 75 28 5 5 6 5 5 42 64 52 50 100 100 100 100 100 71 95 96 100 100 100 100 87 92 94 92 79 97 100 100 100 100 100 100 100 100 100 100 100 100 100
29 58 25 36 40 62 14 31 56 95 97 96 100 100 100 100 100 100 83 93 82 88 96 95 100 99 72 68 93 92 100 100 100 100 100 100 100 100 100 100 100 100 100 100
5 28 77 87 72 69 96 72 55 5 39 98 100 100 100 100 91 76 99 99 89 91 99 100 87 96 98 99 100 100 95 100 100 100 100 100 100 97 99 100 100 100 100 100
100 100 100 90 100 52 38 31 5 32 62 84 70 100 100 100 100 95 100 100 100 80 94 96 100 100 96 98 100 97 96 100 100 100 100 85 94 100 100 100 100 100 100 100
100 100 100 100 88 8 5 40 46 69 100 75 65 87 95 98 100 100 100 100 100 100 90 99 100 100 100 90 100 100 100 100 100 100 100 100 100 100 100 100 100 100 100 100
100 100 60 15 5 5 5 8 25 48 60 93 85 87 80 90 100 100 100 100 100 100 100 100 100 99 100 99 100 100 100 100 100 100 100 100 100 100 100 100 100 100 100 100

GFSNGP_prec_cloud_018.txt.gz
Cloud_Cover
0 0 0 0 0 0 5 5 70 21 99 100 81 13 94 18 5 5 5 5 5 5 5 5 5 5 5 5 9 5 32 8 62 54 99 37 5 5 5 64 8 5 5 5
0 0 0 5 0 0 2 5 64 29 5 100 94 5 5 5 5 5 5 5 5 5 5 5 5 22 94 34 96 99 100 92 100 66 5 5 2 2 5 98 5 5 99 96
5 6 5 5 5 1 4 40 9 37 53 54 7 5 6 89 8 10 48 36 8 5 10 83 59 11 17 94 95 45 18 36 100 73 36 47 17 5 8 54 27 86 100 94
6 42 10 5 5 5 5 10 27 85 98 84 47 42 6 38 76 82 31 5 5 60 76 93 36 46 100 5 1 12 72 97 95 97 98 72 100 6 97 71 95 100 100 78
61 5 5 5 28 5 5 2 5 15 8 5 5 5 5 92 96 8 5 19 66 52 11 6 92 95 6 5 2 89 99 48 35 4 100 99 100 60 100 100 99 100 49 34
29 6 4 0 54 5 18 5 53 74 54 69 5 21 45 5 5 18 70 99 54 5 40 100 82 5 5 4 5 5 91 6 10 98 100 100 100 100 100 100 100 24 5 5
56 68 9 0 5 4 5 6 5 5 5 5 14 65 26 5 5 14 5 5 22 5 6 20 5 4 5 5 5 48 0 4 5 8 75 18 93 100 100 100 92 5 5 5
55 86 26 4 32 46 5 5 63 92 20 33 5 5 8 12 5 5 5 5 5 5 6 5 3 5 10 5 4 0 3 4 5 8 100 69 68 100 100 64 13 5 5 5
4 5 4 96 98 34 5 5 58 98 31 91 95 100 62 5 5 5 5 5 20 53 6 5 5 88 99 5 4 5 5 5 12 5 29 71 100 100 6 5 5 5 5 5
3 2 2 43 84 37 5 29 82 93 95 100 100 85 5 8 6 20 97 15 31 33 7 74 100 98 13 5 5 5 5 38 78 42 76 79 5 5 5 5 5 5 5 5
5 5 34 98 38 44 13 27 100 100 98 100 26 52 45 68 62 94 100 69 24 40 74 5 5 5 5 5 5 23 5 5 5 5 5 5 5 20 41 5 5 5 5 5
60 73 78 36 53 85 44 100 100 100 100 99 69 37 73 85 100 99 5 5 5 5 5 5 5 5 74 95 24 61 34 5 5 5 5 20 35 11 16 5 8 5 5 5
100 80 17 51 8 11 77 85 94 100 99 6 62 99 100 100 84 71 5 5 5 5 5 5 5 81 98 71 49 93 100 74 56 27 17 99 100 100 98 88 80 25 68 23
92 40 74 20 79 82 100 98 74 46 42 100 100 77 55 54 7 5 5 5 5 5 5 13 66 81 76 96 19 36 5 10 86 100 96 100 100 100 100 100 97 95 98 80
10 5 16 98 100 99 100 73 38 80 76 70 81 58 11 5 5 4 5 5 5 5 89 100 100 72 38 86 28 5 95 29 97 100 100 100 100 100 100 100 98 100 100 94
22 79 84 99 78 81 34 39 52 17 51 100 20 5 5 5 5 5 17 5 5 8 17 100 100 100 90 100 70 32 44 79 99 100 100 100 100 100 100 100 100 100 100 89
100 88 74 52 96 71 41 54 37 100 92 28 5 5 5 5 5 41 6 5 5 65 100 100 100 100 90 100 34 83 98 100 100 100 100 100 100 100 100 100 100 100 99 97
100 94 88 95 62 83 95 63 88 53 6 5 5 5 12 10 13 42 70 47 62 79 100 100 98 98 100 99 84 92 45 90 94 100 100 100 100 100 100 100 100 100 100 98
94 85 79 79 78 65 86 54 5 5 16 28 40 11 5 70 26 99 100 100 76 88 71 100 93 95 49 5 6 100 100 100 100 100 98 100 98 100 100 100 100 100 100 100
91 99 100 100 100 99 52 13 5 49 99 82 12 5 29 40 100 100 100 100 94 89 97 100 92 65 5 5 17 95 88 96 99 99 100 100 100 100 100 100 100 100 100 100
100 100 100 100 100 100 97 100 99 100 98 6 47 100 100 100 100 100 100 100 39 85 100 99 88 100 81 99 95 76 61 70 100 96 100 100 100 100 100 100 100 100 100 100
92 100 100 100 100 100 100 100 52 96 87 62 94 100 71 100 100 100 100 92 92 93 100 100 94 90 97 98 98 100 68 59 100 98 100 100 100 100 100 100 100 100 100 100
100 99 100 100 100 100 100 99 79 96 100 100 92 13 7 76 100 100 100 57 100 82 85 100 100 100 100 100 92 84 39 34 100 100 99 100 100 100 99 97 100 100 100 100
100 100 100 98 100 100 100 98 100 100 74 9 18 94 75 90 100 95 99 91 100 100 99 100 100 100 98 99 100 100 98 87 92 98 100 100 100 100 100 96 98 100 100 100
100 100 100 100 100 100 100 100 48 4 14 5 6 5 50 100 100 94 100 100 100 100 100 96 84 83 93 100 100 100 73 98 90 98 100 100 100 99 99 100 100 100 100 100
100 100 100 100 97 53 5 5 5 34 12 5 5 6 17 84 100 100 100 100 100 100 100 100 100 100 97 95 100 97 98 100 100 100 100 100 100 100 100 100 100 100 100 100
100 88 14 4 1 0 1 27 69 74 10 31 9 10 81 46 15 66 92 99 94 99 100 100 100 100 100 100 98 100 100 100 100 100 100 100 100 100 100 100 100 100 100 100

GFSNGP_prec_cloud_021.txt.gz
Cloud_Cover
0 0 0 0 0 0 0 0 0 1 77 82 14 6 80 36 5 5 70 5 4 5 5 6 39 34 6 5 5 2 5 6 5 5 19 51 81 100 92 100 99 100 34 4
0 0 1 1 0 0 0 0 0 2 5 5 5 5 5 5 5 67 69 5 6 16 7 5 5 5 5 5 5 5 20 14 4 5 100 82 30 100 100 100 100 97 28 58
4 3 5 5 5 0 0 0 0 5 2 2 1 0 5 68 53 16 39 32 9 5 5 5 5 5 5 5 5 51 13 5 1 5 66 73 47 100 100 100 58 85 72 100
5 12 5 1 3 0 3 0 2 4 5 5 5 5 33 36 57 22 5 5 5 5 5 5 5 5 19 71 93 6 5 0 0 0 0 1 5 100 100 100 100 93 84 83
50 5 5 5 6 5 5 5 5 0 0 2 7 80 6 18 6 5 5 5 5 5 5 62 94 100 62 84 13 1 0 0 0 0 4 21 82 94 100 93 100 64 36 30
82 5 5 5 5 8 5 3 5 5 5 5 5 12 5 5 5 5 5 59 52 74 94 94 50 5 5 5 5 0 0 2 5 0 5 21 16 13 46 98 97 7 5 5
21 10 2 0 1 5 5 1 0 5 5 5 5 11 9 10 60 33 61 89 18 5 38 5 5 5 5 3 5 4 5 4 0 5 4 13 93 72 100 96 6 5 5 5
70 52 40 3 4 5 5 3 5 5 5 32 93 98 61 78 79 95 95 9 5 5 5 10 5 5 5 4 1 5 5 0 0 3 13 75 100 99 48 5 5 5 5 5
99 71 14 2 5 5 5 5 16 5 33 15 46 84 88 100 89 52 6 5 5 5 6 5 5 5 5 5 3 0 0 3 0 5 5 14 10 21 52 5 5 5 5 5
50 7 34 5 5 6 8 51 48 92 100 62 99 100 100 65 63 67 5 5 5 5 5 5 3 0 4 5 0 0 2 5 5 5 5 5 36 33 5 5 5 5 5 5
5 5 23 6 19 6 12 31 99 100 93 25 84 64 86 77 82 9 5 5 5 5 5 2 0 2 5 4 4 5 5 5 5 5 5 5 5 5 6 5 5 5 5 5
14 44 98 14 18 62 90 100 97 70 91 86 69 95 95 22 5 5 5 5 5 5 5 0 5 5 5 5 5 55 52 5 5 5 5 14 22 6 5 5 5 5 11 26
42 100 32 70 100 100 31 10 42 76 64 81 100 97 5 5 5 5 5 5 5 5 5 5 5 6 77 95 86 29 6 5 5 5 86 99 94 92 100 30 5 5 40 90
100 100 100 100 100 88 46 73 81 86 99 72 22 7 5 5 5 5 5 5 7 5 5 5 11 98 100 97 93 99 97 5 63 36 87 100 100 100 100 97 96 51 24 76
100 98 100 100 97 63 96 93 79 38 63 35 84 18 5 5 5 5 7 69 71 5 5 76 59 100 100 100 99 97 30 51 99 100 100 100 100 100 100 100 100 100 96 86
100 100 100 100 100 87 45 72 89 75 56 68 6 5 8 13 43 54 97 100 28 31 95 42 84 100 100 99 100 100 7 7 91 100 100 100 100 100 100 100 100 100 100 69
100 100 100 100 95 100 98 95 76 80 36 5 8 68 85 70 62 100 100 100 96 100 84 45 97 100 100 100 100 100 96 99 75 100 96 100 100 100 100 100 100 100 100 97
100 100 100 97 99 100 95 96 84 77 81 74 98 100 99 85 96 100 100 100 100 100 100 55 100 100 100 94 100 92 81 98 69 70 84 98 99 100 100 100 100 100 100 100
100 100 100 100 100 87 97 84 80 100 100 70 61 82 94 100 100 100 100 100 100 100 49 79 94 100 100 91 64 5 5 5 43 100 100 99 98 100 100 100 100 100 100 100
100 100 100 100 100 100 100 100 100 84 73 80 100 100 100 100 100 98 100 100 100 89 74 94 99 100 100 98 91 23 8 24 44 98 100 100 99 100 98 100 100 100 90 99
100 100 100 100 100 100 100 99 74 94 100 100 100 100 100 100 32 19 90 78 12 7 95 100 78 100 100 100 92 99 96 97 74 96 93 95 80 94 98 100 100 100 93 100
100 100 100 100 99 100 100 100 100 100 100 100 100 100 100 74 5 5 64 76 5 88 88 100 98 100 100 100 100 100 100 99 100 30 99 100 100 100 100 99 100 100 99 93
100 100 96 91 100 100 100 100 100 100 100 100 100 99 44 6 5 36 78 44 94 100 100 100 100 100 100 100 100 100 100 95 82 84 96 100 100 100 100 100 100 100 100 100
100 100 100 100 100 100 100 100 100 100 100 21 29 7 5 7 5 32 86 99 100 100 100 100 100 99 100 100 100 100 100 100 94 93 98 97 100 100 100 100 100 100 100 100
100 100 100 100 100 100 100 100 82 2 5 5 20 76 88 31 61 33 47 50 76 100 100 100 100 100 100 97 93 90 80 83 76 85 98 100 100 100 100 100 100 100 100 100
100 100 100 100 100 100 93 1 0 0 12 20 81 95 100 56 8 11 14 10 40 98 100 100 100 100 100 100 100 97 98 95 93 97 90 100 100 100 100 100 100 100 100 100
100 100 100 100 99 18 2 8 52 70 86 93 97 100 94 38 6 65 88 75 77 84 76 78 100 100 100 100 100 100 100 100 100 100 100 100 100 100 100 100 100 100 100 100

GFSNGP_prec_cloud_024.txt.gz
Cloud_Cover
0 0 0 5 4 0 0 0 0 0 0 0 0 0 5 5 5 5 32 94 81 92 45 5 56 21 5 5 5 59 100 100 100 100 100 50 2 59 5 6 46 100 100 100
0 0 5 5 4 0 0 0 0 0 0 0 0 5 5 5 5 82 100 100 81 5 5 5 5 5 5 12 100 100 54 40 32 27 0 0 0 0 0 46 98 100 100 88
5 5 5 9 5 0 0 1 1 2 0 0 3 2 4 5 5 37 65 6 5 5 5 5 5 5 5 29 73 11 5 1 0 0 0 0 0 4 100 100 100 100 100 98
21 9 19 5 5 2 2 5 3 0 0 0 5 5 5 5 5 5 5 5 5 14 51 5 16 32 51 5 6 5 5 0 0 0 0 1 6 80 100 99 59 58 95 80
99 37 5 5 6 5 5 64 5 5 4 0 0 3 5 43 5 11 14 42 19 16 71 9 7 11 5 5 5 3 0 0 0 0 0 0 23 58 56 8 63 82 100 50
90 5 5 6 5 7 73 100 42 12 6 5 17 5 5 5 5 43 61 5 58 58 6 8 24 5 5 5 1 0 5 5 5 5 0 5 5 96 99 34 88 99 6 5
88 29 18 5 5 43 100 100 28 54 32 26 100 56 5 5 5 8 11 96 69 57 65 24 5 5 5 3 5 5 3 4 5 0 0 5 56 78 41 21 13 79 13 5
100 100 80 8 5 10 91 89 18 100 94 100 94 70 5 49 22 50 100 90 84 66 5 5 5 2 4 3 0 2 5 5 4 0 3 5 5 19 75 98 99 74 17 5
100 100 100 19 6 69 8 16 100 100 100 100 100 88 96 30 52 86 81 78 13 6 7 6 0 5 0 1 5 5 5 5 5 5 5 5 67 89 100 67 8 5 5 30
95 100 100 28 99 96 31 100 92 68 100 100 100 100 44 62 97 100 73 46 74 39 31 5 5 5 4 5 5 57 5 5 5 5 5 5 5 5 5 6 15 5 5 5
5 9 33 100 84 22 71 93 54 99 91 99 80 41 85 97 100 60 16 70 52 19 10 5 5 5 40 67 58 85 82 54 38 5 5 5 30 70 49 7 5 5 5 17
6 54 18 25 5 32 96 100 100 100 71 13 40 90 97 83 5 49 72 44 30 29 5 5 5 24 89 89 100 100 96 94 66 5 7 18 95 99 64 5 5 5 5 41
96 99 95 58 94 100 100 100 100 93 66 37 98 74 29 56 95 70 57 41 8 5 5 5 40 100 100 100 100 100 100 100 100 29 63 98 82 100 99 14 5 5 5 5
100 100 100 100 100 100 100 100 97 68 62 99 79 82 66 81 59 64 30 5 6 27 34 53 100 100 97 100 100 100 100 100 100 99 98 96 100 100 100 100 100 70 5 5
100 100 100 100 100 100 100 76 88 76 100 94 68 77 60 5 64 56 44 32 78 97 100 100 100 95 94 100 100 100 100 96 100 97 100 100 100 100 100 100 98 99 71 12
100 100 100 100 100 100 100 100 100 100 86 74 61 22 22 19 5 6 74 98 100 100 100 100 100 44 100 100 100 100 100 97 81 94 100 100 100 100 100 100 100 100 100 75
100 92 99 100 100 100 100 100 100 100 94 44 55 57 23 5 22 92 100 100 100 100 100 98 78 98 100 100 100 100 100 96 96 100 100 100 100 100 100 100 100 100 98 100
100 100 100 100 100 100 100 100 100 92 80 75 66 61 41 91 86 87 100 100 100 100 100 85 100 91 100 100 100 100 90 90 66 27 87 95 85 100 100 100 100 100 96 99
100 100 100 100 100 100 100 100 97 100 87 87 94 81 100 71 61 100 100 100 100 37 7 69 93 100 95 100 100 98 89 9 5 14 49 92 100 100 100 100 98 100 100 98
100 100 100 100 100 100 100 98 100 100 100 100 100 98 43 78 100 100 100 100 5 9 5 5 46 100 100 100 100 94 100 81 69 87 100 100 100 79 96 98 100 96 99 99
100 95 100 100 100 100 100 100 99 100 100 89 81 100 99 100 100 100 100 31 5 31 66 59 74 100 100 100 100 100 100 99 100 99 99 99 100 88 85 98 100 100 100 98
100 100 100 100 100 100 100 100 100 100 100 100 100 100 100 100 100 92 6 5 5 16 95 100 100 100 100 100 100 100 100 100 100 100 99 98 100 100 96 82 96 100 100 98
100 100 98 99 100 100 100 100 100 100 100 100 100 100 100 93 16 26 8 5 6 62 76 62 100 100 100 100 100 100 93 78 87 97 93 86 96 98 97 100 100 100 100 100
100 100 100 100 100 100 100 100 100 100 100 100 100 46 8 61 67 89 92 22 58 45 83 100 100 100 100 100 100 100 90 74 82 94 100 98 98 100 100 100 100 100 100 100
100 100 100 100 100 100 100 100 100 100 95 38 3 5 8 98 92 65 90 24 45 85 100 100 100 74 91 100 100 100 91 87 94 100 100 100 100 100 100 100 100 100 100 100
100 100 100 100 100 100 100 78 25 4 21 22 10 31 11 66 100 98 57 59 34 36 64 91 96 100 100 100 100 100 100 99 98 100 100 100 100 100 100 100 100 100 100 100
100 98 100 68 29 5 5 7 87 98 44 73 59 77 100 100 100 97 84 86 83 92 86 75 51 64 76 98 100 100 100 100 100 100 100 100 100 100 100 100 100 100 100 100

GFSNGP_prec_cloud_030.txt.gz
Cloud_Cover
4 15 21 42 23 2 4 2 4 3 4 5 5 5 5 5 4 0 2 5 5 27 23 74 100 63 14 6 5 5 5 5 7 14 18 31 7 5 5 5 81 70 70 78
14 8 7 8 4 5 5 5 5 5 5 5 5 5 5 5 5 5 26 15 15 85 100 98 100 96 5 5 8 24 35 58 87 99 100 76 77 5 5 8 77 35 24 5
7 4 13 81 5 5 44 79 5 5 5 7 33 13 60 100 82 35 29 38 100 100 100 100 100 50 35 76 97 95 83 98 100 100 100 43 5 24 5 57 45 25 5 5
5 5 43 50 32 5 5 5 5 5 48 19 18 99 100 12 22 69 98 93 100 96 94 100 100 90 100 100 100 97 100 100 100 100 80 5 4 25 20 37 93 46 10 5
5 7 85 100 100 39 3 25 79 6 22 6 67 80 99 54 92 84 100 100 94 100 98 100 100 100 100 100 100 100 100 100 97 79 5 2 5 0 5 29 86 84 10 53
56 44 66 100 100 12 6 76 100 100 98 100 100 100 100 5 83 99 94 86 100 100 100 100 100 100 100 100 100 100 100 93 21 5 5 5 0 22 5 33 5 14 93 48
92 13 100 100 93 95 98 89 54 40 14 95 100 100 100 29 61 80 100 100 100 100 100 100 100 100 100 100 100 100 90 10 5 5 5 5 24 7 5 5 6 52 87 97
67 67 48 5 36 91 99 100 100 54 79 100 100 100 90 100 100 100 100 100 100 100 100 100 100 100 100 100 68 86 19 5 5 79 77 8 17 5 7 70 99 100 100 18
92 100 47 59 100 100 100 100 100 99 100 100 100 76 98 100 100 100 100 100 100 100 100 100 100 100 100 58 84 26 48 5 5 100 94 60 50 11 5 77 100 97 66 72
96 100 100 100 100 100 97 51 22 92 100 100 100 100 100 100 100 100 100 100 100 100 100 100 99 100 94 56 35 80 59 5 29 83 99 98 58 5 22 98 99 73 30 53
100 100 24 100 100 78 37 61 100 100 100 100 100 100 100 100 100 100 100 100 100 100 100 100 100 90 99 97 92 23 5 6 83 100 97 100 67 30 99 100 84 75 90 76
10 26 5 39 98 91 92 100 100 100 100 100 100 100 100 100 100 100 100 100 100 100 96 100 100 100 37 60 39 14 56 27 100 100 98 100 65 50 99 100 81 100 100 96
5 5 5 30 56 54 63 100 100 92 50 100 100 100 100 100 100 100 100 100 100 100 100 100 100 87 58 8 25 15 49 99 100 100 100 100 99 97 66 100 100 100 100 82
13 42 83 50 34 41 60 84 100 100 100 100 100 100 100 100 100 100 100 100 100 100 100 100 100 100 100 70 19 29 100 100 100 100 100 100 100 100 100 99 99 96 95 97
68 43 47 98 100 100 100 100 100 100 100 100 100 100 100 100 100 100 100 100 100 100 100 100 100 100 99 45 75 100 100 99 100 100 100 100 98 100 100 100 94 94 95 90
100 100 100 100 100 100 100 100 100 100 100 100 100 100 100 100 100 100 100 100 100 100 100 100 100 100 85 95 100 87 100 99 100 99 100 100 85 98 100 100 97 100 100 91
100 100 100 100 95 100 100 100 100 100 100 100 100 100 100 100 100 100 100 100 97 73 86 100 93 75 100 99 26 97 100 100 100 100 100 78 98 98 95 98 97 94 99 99
72 100 100 100 100 100 100 100 100 100 100 100 100 100 100 100 100 100 100 100 100 100 100 98 100 100 70 5 30 95 100 100 100 100 100 94 76 86 58 70 80 90 72 73
100 100 100 100 100 100 100 100 100 100 100 100 100 100 100 100 100 100 100 100 100 76 98 100 100 15 5 28 97 100 100 100 100 98 100 100 84 95 70 72 65 69 79 99
100 100 97 100 100 100 100 100 100 100 100 100 100 100 100 100 100 100 100 100 100 100 100 40 5 5 5 24 99 100 100 100 100 100 100 99 97 92 84 92 82 99 91 82
100 100 100 100 100 100 100 100 100 100 100 100 100 100 100 100 100 100 100 100 100 48 59 20 83 71 99 100 100 100 100 100 100 100 100 99 100 100 100 100 100 98 94 100
68 95 100 100 90 100 100 100 100 100 100 100 100 100 100 100 100 100 100 31 5 5 12 49 92 100 100 100 100 100 100 100 100 100 100 97 98 100 92 97 100 100 100 100
100 100 100 100 100 100 100 100 100 100 100 100 100 100 100 94 20 69 11 5 5 31 98 100 100 100 100 100 100 100 100 100 100 100 99 99 94 96 100 100 100 100 100 100
100 100 100 100 100 100 100 100 100 100 81 74 14 7 5 18 10 5 5 16 38 90 100 100 100 95 100 94 87 98 97 96 97 100 96 100 100 99 100 100 100 100 100 100
100 100 98 88 94 98 67 26 8 7 20 42 52 20 24 28 97 33 57 57 79 100 100 100 100 94 98 100 100 100 100 100 95 100 98 100 100 98 94 98 100 100 100 100
66 99 100 100 98 96 98 100 100 100 100 92 73 93 100 100 100 100 79 100 100 94 100 100 100 93 100 100 100 100 100 100 100 100 100 95 100 100 100 89 89 100 99 100
49 24 11 24 88 87 55 83 99 94 99 98 96 82 98 92 100 100 100 100 97 98 99 100 100 94 100 100 100 100 100 100 100 100 100 100 100 100 99 100 100 100 99 100

GFSNGP_prec_cloud_033.txt.gz
Cloud_Cover
0 0 4 6 31 5 5 5 2 5 5 26 21 5 5 5 5 5 5 5 8 5 91 100 92 86 100 57 20 5 5 6 24 99 98 100 100 100 83 7 8 39 98 73
5 10 83 79 14 5 5 5 5 24 30 5 5 5 5 5 5 12 5 5 5 77 100 88 100 100 100 100 60 59 19 41 99 100 100 100 100 53 55 16 10 44 30 5
69 59 99 100 9 5 5 5 5 5 4 5 13 99 100 79 6 5 5 53 64 93 100 88 100 99 96 80 95 100 90 100 100 100 100 100 22 50 29 37 11 47 30 40
58 8 94 100 69 5 5 5 5 5 5 10 66 91 97 6 6 6 46 78 96 100 100 100 76 86 90 90 100 100 100 100 100 100 100 78 34 5 5 8 82 97 96 78
27 4 9 98 63 22 0 5 3 4 65 97 98 54 99 81 40 74 86 51 100 100 100 100 66 62 89 99 100 100 100 100 100 100 98 7 25 6 2 2 94 70 28 8
92 5 22 100 93 21 5 6 28 100 100 100 100 18 64 14 74 100 82 100 100 100 100 100 100 100 100 100 100 100 100 100 97 72 45 41 100 5 2 32 99 28 82 93
5 30 68 50 34 7 46 62 100 100 100 100 97 71 58 39 69 100 100 100 100 100 100 100 100 100 100 100 100 100 94 14 6 85 86 100 82 5 5 5 5 15 78 66
58 67 5 5 5 52 100 100 100 79 28 9 83 48 13 81 100 100 100 100 100 100 100 100 100 100 100 100 98 81 24 10 99 100 100 95 5 5 5 5 8 83 91 71
96 41 5 7 40 58 85 100 78 6 5 18 54 46 59 99 100 100 100 100 100 100 100 100 100 99 100 91 100 76 32 100 100 100 85 5 39 5 5 5 54 92 59 19
5 45 5 8 19 74 100 87 86 16 47 9 26 42 85 100 100 100 100 100 100 100 100 100 99 100 100 90 100 98 100 100 100 84 5 74 88 64 5 5 57 77 78 98
23 91 98 100 100 100 64 29 8 14 23 38 46 62 84 100 100 100 100 100 100 99 100 100 100 100 96 100 100 100 100 100 56 14 6 82 70 90 49 18 89 97 99 95
100 100 100 100 92 85 55 40 37 45 61 98 98 100 100 100 100 100 100 100 100 100 100 100 100 100 100 100 100 100 100 64 41 66 48 98 71 74 25 9 20 60 88 97
16 30 75 31 8 6 24 59 34 64 71 84 96 98 100 100 100 100 100 100 100 100 100 100 100 100 100 100 100 89 66 71 76 86 95 76 91 90 89 68 15 5 9 7
6 32 43 34 62 28 5 5 6 27 93 100 100 100 100 100 100 100 100 100 100 100 100 100 100 100 100 98 80 16 96 100 100 100 100 100 100 100 99 100 94 69 14 39
44 36 7 9 18 5 34 82 100 100 100 100 100 100 100 100 100 100 100 100 100 100 100 100 100 100 100 63 45 59 100 100 100 100 100 99 100 82 93 100 99 86 77 15
100 68 72 78 88 98 100 100 100 100 100 100 100 100 100 100 100 100 100 100 100 100 100 100 100 98 60 100 100 100 100 26 90 100 100 100 100 74 16 72 97 100 98 99
100 100 100 100 100 100 100 100 100 100 100 100 100 100 100 100 100 100 100 100 100 100 100 100 87 97 100 100 100 51 5 67 100 100 100 99 100 92 83 89 87 98 97 67
100 100 100 100 100 100 100 100 100 100 100 100 100 100 100 100 100 100 100 100 100 100 100 60 100 100 100 86 10 5 10 22 48 87 100 100 98 91 84 59 71 51 55 55
100 100 100 100 100 100 100 100 100 100 100 100 100 100 100 100 100 100 100 100 100 100 100 100 100 100 17 92 100 54 91 100 94 92 73 77 99 87 84 93 80 82 63 43
100 100 100 100 100 100 100 100 100 100 100 100 100 100 100 100 100 100 100 100 100 100 88 16 5 10 84 99 88 100 100 100 100 100 100 100 100 100 100 100 94 90 94 82
100 100 98 87 97 76 86 93 100 100 100 100 100 100 100 100 100 100 100 99 9 5 5 8 5 67 100 98 99 100 100 100 100 100 100 99 91 98 98 100 100 100 100 100
82 84 80 76 92 87 92 97 98 100 100 100 100 100 71 29 5 6 30 51 5 10 12 12 22 65 96 100 93 78 94 100 100 100 100 100 100 100 98 99 100 98 100 100
90 93 99 100 94 99 100 97 75 80 30 5 8 17 57 61 88 100 96 50 97 93 100 97 87 85 98 90 92 72 91 97 100 100 100 100 100 100 100 94 93 93 89 99
83 99 77 74 98 87 40 12 12 9 23 23 41 13 41 71 35 89 100 100 99 97 100 97 100 100 100 100 95 89 100 98 100 100 100 100 100 100 100 100 99 76 100 100
98 99 91 20 5 18 54 12 20 6 5 5 8 50 83 71 99 80 86 93 100 100 100 100 97 100 100 100 92 93 100 100 100 100 100 100 100 100 100 100 98 96 95 100
5 5 5 5 25 5 13 5 32 50 20 29 49 65 96 39 12 7 72 99 100 100 100 100 100 100 100 100 100 99 100 100 100 100 100 100 100 100 100 100 100 99 100 94
5 5 5 5 5 7 10 5 59 37 57 96 100 38 5 28 88 86 70 84 98 100 100 100 100 100 100 100 100 100 100 100 100 100 100 100 100 100 100 100 100 100 99 100

GFSNGP_prec_cloud_036.txt.gz
Cloud_Cover
5 30 8 5 20 13 5 75 22 1 5 2 84 86 78 13 5 5 5 5 5 5 5 5 40 15 79 44 92 64 85 53 28 16 36 87 100 100 100 55 26 14 44 70
45 27 5 39 65 5 5 5 5 5 24 0 3 6 5 5 5 81 30 5 5 5 5 5 13 65 80 99 22 100 63 98 60 93 100 100 100 95 86 19 64 83 94 97
58 5 52 100 5 5 5 2 5 5 5 5 7 5 5 17 100 99 9 5 5 5 5 15 77 100 100 85 100 81 100 89 99 100 100 100 98 52 46 10 77 100 100 97
7 66 100 100 6 5 0 4 1 1 5 5 4 4 5 33 92 6 24 75 12 6 32 93 100 100 100 100 94 100 99 99 96 100 100 94 99 86 18 77 70 100 100 100
55 16 100 100 54 5 0 5 5 5 5 5 5 5 7 100 8 5 6 6 35 60 100 100 100 100 100 100 100 100 100 100 100 94 96 100 98 100 94 100 80 98 96 100
24 70 82 100 100 48 5 5 85 94 11 5 5 6 96 100 46 6 14 41 44 72 99 99 99 100 100 100 100 100 100 100 100 100 100 100 100 100 100 97 85 92 100 100
18 38 87 84 65 6 12 40 99 33 20 100 100 100 100 15 5 5 41 8 41 95 100 100 98 100 100 100 100 100 100 100 100 100 100 100 100 100 98 98 93 100 74 78
65 74 49 5 33 96 98 77 8 32 87 74 100 100 55 5 5 9 56 80 93 98 100 100 100 100 100 100 100 100 100 100 100 100 100 100 100 100 99 98 98 100 100 81
6 5 5 22 81 17 8 80 82 48 86 99 22 5 5 5 49 83 64 94 98 100 100 100 100 100 100 100 100 100 100 100 100 100 100 100 100 86 100 99 100 100 100 100
5 8 5 5 5 5 5 18 100 100 56 5 5 5 23 83 100 99 85 99 100 100 100 100 100 100 100 100 100 100 100 100 100 100 100 100 98 100 100 100 100 100 100 100
5 5 5 7 45 97 100 98 37 5 16 5 6 56 92 61 13 82 100 100 100 100 100 100 100 100 100 100 100 100 100 100 100 100 93 85 93 100 100 100 100 99 100 100
93 100 100 100 100 81 8 5 5 5 6 42 76 47 15 58 93 99 100 100 100 100 100 100 100 100 100 100 100 100 100 100 52 100 94 100 98 100 100 90 23 5 5 6
48 42 15 6 5 41 68 17 61 8 53 10 9 86 86 100 100 100 100 100 100 100 100 100 100 100 100 100 100 100 100 100 78 99 100 100 94 100 100 100 97 81 5 5
8 34 82 98 22 8 5 5 12 20 67 84 100 100 100 100 100 100 100 100 100 100 100 100 100 100 100 100 100 100 100 68 85 97 100 98 95 96 100 100 100 99 96 96
100 73 28 48 48 30 61 94 100 100 100 100 100 100 100 100 100 100 100 100 100 100 100 100 100 100 100 100 100 100 9 81 99 100 100 100 100 96 98 100 100 100 100 100
83 84 100 100 89 78 99 100 100 100 100 100 100 100 100 100 100 100 100 100 100 100 100 100 100 100 100 100 88 61 98 97 75 79 88 96 100 100 100 100 100 100 100 100
100 98 100 100 96 100 100 87 98 100 100 100 100 100 100 100 100 100 100 100 100 100 100 100 99 98 100 81 56 86 100 100 100 90 100 100 100 98 98 100 100 100 100 96
100 100 100 99 100 100 100 100 100 100 100 100 100 100 100 100 100 100 100 100 100 100 100 99 100 90 55 5 31 94 100 100 100 100 100 100 100 100 96 100 100 100 100 100
100 100 100 100 100 100 100 100 100 100 100 100 100 100 100 99 100 100 98 83 87 35 18 6 4 5 5 6 55 100 100 100 100 100 100 100 100 100 100 96 99 96 99 98
100 100 100 100 100 100 100 100 100 90 94 52 17 50 72 84 88 40 59 97 23 5 3 4 5 5 7 36 17 59 100 100 100 100 100 100 100 94 100 100 100 100 100 100
100 100 100 100 88 51 51 36 8 50 7 5 6 6 13 16 5 10 39 9 25 92 97 94 90 96 99 34 75 100 100 100 100 85 100 100 100 100 100 100 100 100 100 100
94 96 57 8 5 8 23 5 5 5 5 5 5 12 10 5 5 5 54 74 63 100 100 80 82 82 100 100 100 100 100 100 100 100 100 100 100 100 100 100 100 100 100 100
72 81 39 52 68 57 27 5 5 12 12 7 9 5 5 6 38 80 68 48 99 99 96 89 100 97 99 100 100 100 100 99 97 100 100 100 100 100 100 100 100 100 100 100
50 76 78 24 5 5 2 5 5 5 5 5 3 5 5 5 10 5 5 5 5 23 77 25 100 100 100 100 100 100 100 100 99 100 100 100 100 100 100 100 100 100 100 100
72 11 5 5 5 5 23 44 2 0 0 0 5 5 26 65 77 12 52 63 40 27 88 22 99 100 100 100 100 100 100 100 100 100 100 100 100 100 100 100 100 100 100 100
5 5 7 11 30 4 2 3 5 2 2 5 5 18 64 90 99 97 100 100 100 100 100 100 100 100 100 100 100 100 100 100 100 100 100 100 100 100 100 100 100 100 100 100
12 5 5 5 5 5 5 5 5 5 14 78 51 82 99 100 100 100 100 100 100 100 100 100 100 100 100 100 100 100 100 100 100 100 100 100 100 100 100 100 100 100 100 100

GFSNGP_prec_cloud_039.txt.gz
Cloud_Cover
0 2 3 1 2 5 5 1 38 0 5 0 5 46 24 24 5 1 4 5 48 100 100 7 5 50 36 6 80 77 100 94 84 78 79 99 78 60 65 50 67 89 100 90
0 0 0 3 5 5 1 3 41 4 13 0 5 5 5 5 5 5 2 5 10 100 7 4 1 5 51 79 94 66 96 97 83 93 100 83 94 96 81 99 100 100 100 100
4 3 5 5 5 4 4 5 4 5 13 5 5 4 1 0 2 5 5 5 39 97 5 5 5 34 50 96 51 100 100 99 100 100 94 100 100 92 100 100 100 100 100 100
11 5 76 5 0 4 5 5 3 5 5 5 5 4 5 5 5 5 5 37 96 5 5 16 42 32 79 82 100 100 100 100 96 100 100 100 100 100 100 100 100 100 100 100
54 14 91 5 5 5 5 5 5 5 5 5 5 5 5 23 5 2 15 40 5 5 8 8 66 70 100 100 100 100 100 100 100 100 100 100 100 100 100 100 100 100 100 98
11 66 95 16 5 5 5 5 41 47 5 5 5 5 2 5 5 5 11 21 5 7 41 64 63 88 96 78 100 100 100 100 100 100 100 100 100 100 100 100 100 100 79 91
5 35 5 46 8 24 33 89 30 6 5 5 10 5 5 11 29 100 93 10 91 60 19 15 78 92 100 100 100 100 100 100 100 100 100 100 100 100 100 100 100 15 63 100
6 63 63 20 59 98 72 12 20 19 7 6 5 7 73 100 100 65 15 87 67 68 92 99 99 100 100 100 100 100 100 100 100 100 100 100 100 100 100 100 99 93 99 96
5 5 12 54 13 14 35 34 17 5 15 31 39 99 99 28 6 13 58 88 88 100 83 63 100 100 100 100 100 100 100 100 100 100 100 100 100 100 100 100 98 99 98 100
33 5 5 5 5 5 5 5 5 9 80 100 66 5 21 5 5 43 92 93 25 62 100 100 100 100 100 100 100 100 100 100 100 100 100 100 100 100 100 92 98 100 97 100
88 5 5 5 5 12 22 68 100 87 15 5 5 12 48 8 50 65 12 80 100 100 100 100 100 100 100 100 100 100 100 100 100 100 100 100 100 97 99 88 92 99 100 99
5 34 68 89 100 100 100 39 5 5 42 10 5 9 5 7 23 82 100 100 100 100 100 100 100 100 100 100 100 100 100 100 100 100 100 100 100 83 86 99 99 76 48 16
99 100 100 100 94 31 17 81 94 92 34 31 10 17 52 100 100 100 100 100 100 100 100 100 100 100 100 100 100 100 100 73 100 100 100 100 97 81 100 87 99 90 91 95
100 100 93 35 13 72 74 94 44 100 99 94 76 100 100 100 100 100 100 100 100 100 100 100 100 100 100 100 100 100 100 100 100 100 100 100 85 100 100 99 96 100 89 100
91 8 5 13 41 68 63 54 58 91 94 100 69 95 100 100 100 100 100 100 100 100 100 100 100 100 100 100 100 100 100 96 54 35 45 100 99 91 100 100 98 100 86 84
93 70 94 100 70 91 62 81 86 49 49 38 71 60 91 100 100 100 100 100 100 100 100 100 100 100 100 100 99 44 63 100 98 96 70 68 93 100 100 92 99 99 100 91
100 100 100 100 78 83 95 62 74 98 100 99 100 100 100 99 67 94 89 94 97 100 98 69 47 47 4 5 5 5 6 68 79 92 100 100 82 100 98 100 100 97 100 100
100 71 67 92 83 88 97 96 100 100 100 100 100 94 100 100 60 36 5 5 100 90 10 38 4 5 5 5 5 5 5 23 98 93 77 100 99 95 100 99 100 100 100 100
100 100 100 100 99 96 100 100 100 100 100 84 89 100 95 100 10 9 20 71 89 45 4 6 39 34 65 68 49 29 64 100 100 100 100 95 83 77 90 100 100 100 100 100
100 100 100 100 100 100 100 100 98 34 24 36 41 88 26 26 47 58 73 63 5 60 80 68 79 100 78 50 86 96 100 99 100 96 74 95 100 87 99 100 100 100 100 100
100 100 100 100 100 100 93 71 50 41 7 5 5 5 5 5 5 5 5 5 5 35 90 68 59 13 86 96 98 69 100 98 100 98 98 100 100 100 100 100 100 100 100 100
100 92 98 100 90 63 18 5 5 5 5 5 5 5 5 1 0 3 5 15 17 19 5 5 5 12 30 31 56 96 100 100 100 100 100 100 100 96 100 100 100 100 100 100
89 73 73 86 22 20 5 0 2 5 5 5 5 5 5 5 5 5 5 29 5 50 64 19 63 77 43 71 97 99 100 100 100 100 100 100 100 100 100 100 100 100 100 100
77 88 10 5 3 0 0 0 0 2 5 5 5 4 5 5 31 56 96 80 98 95 98 100 100 98 100 95 100 100 100 100 100 100 100 100 100 100 100 100 100 100 100 100
5 5 1 0 0 0 0 2 5 5 5 3 5 6 41 79 89 93 100 100 100 100 100 100 100 100 100 100 100 100 100 100 100 100 100 100 100 100 100 100 100 100 100 100
79 6 5 2 5 5 5 5 6 5 5 5 50 84 99 100 100 100 100 100 100 100 100 100 100 100 100 100 100 100 100 100 100 100 100 100 100 100 100 100 100 100 100 100
62 5 5 5 5 5 5 5 39 34 75 100 91 92 100 100 100 100 100 100 100 100 100 100 100 100 100 100 100 100 100 100 100 100 100 100 100 100 100 100 100 100 100 100

GFSNGP_prec_cloud_042.txt.gz
Cloud_Cover
5 5 89 0 53 68 6 18 3 0 0 1 0 12 6 5 5 21 4 4 5 86 62 100 99 100 100 83 5 15 100 100 100 100 100 100 99 100 100 100 100 100 100 100
4 0 0 1 0 0 5 0 0 0 4 0 0 5 5 72 6 1 5 5 5 5 5 54 100 100 57 30 10 68 100 100 100 100 100 100 100 100 100 100 100 100 100 100
0 0 0 3 0 0 0 0 0 0 4 1 0 6 91 3 0 5 5 5 5 5 5 14 100 97 21 56 44 78 99 100 100 100 100 100 100 100 100 100 100 100 100 100
4 0 3 2 0 0 0 0 0 6 30 5 5 5 4 4 5 5 5 6 5 5 5 83 99 100 99 81 79 86 100 100 100 100 100 100 100 100 100 100 100 100 100 100
14 0 3 0 0 0 0 0 2 6 4 3 2 5 5 5 5 16 5 5 5 16 100 100 62 77 52 72 99 100 100 100 100 100 100 100 100 100 100 100 100 100 100 100
4 5 4 0 0 0 0 0 5 5 5 5 5 6 6 6 46 33 12 5 29 100 95 5 5 5 8 80 94 100 100 100 100 100 100 100 100 100 100 100 100 100 100 100
5 31 5 6 2 5 5 5 5 5 5 5 16 5 5 5 5 5 10 83 100 80 10 9 21 64 87 97 100 100 100 100 100 100 100 100 100 100 100 100 100 100 100 100
6 81 62 9 6 7 5 14 5 5 8 5 14 14 5 5 62 96 100 84 19 69 98 79 86 93 100 100 100 100 100 100 100 100 100 100 100 100 100 100 100 100 100 90
5 5 5 5 5 12 97 86 24 19 30 70 91 51 79 98 100 82 50 51 63 100 89 100 97 100 100 100 100 100 100 100 100 100 100 100 100 100 100 100 100 100 95 98
13 5 8 64 5 70 26 33 82 82 82 100 100 100 98 27 96 90 45 59 73 72 92 100 100 100 100 100 100 100 100 100 100 100 100 100 100 100 100 100 100 100 100 100
44 5 5 5 34 52 17 80 100 100 100 100 100 37 17 9 10 62 65 84 100 100 100 100 100 100 100 100 100 100 100 100 100 100 100 100 100 100 100 100 100 100 50 44
33 92 20 11 42 97 99 100 100 100 100 77 6 5 28 99 97 95 100 100 100 100 99 100 100 97 87 96 99 100 100 100 100 100 100 100 100 100 100 100 28 5 5 80
5 6 18 6 8 43 95 100 100 99 10 62 92 66 89 100 100 88 97 69 78 80 86 92 84 75 83 100 100 100 100 100 100 100 100 100 36 96 48 5 5 5 47 95
7 21 27 74 89 100 100 100 80 67 26 18 30 38 30 56 26 72 99 97 89 46 36 38 60 54 46 66 74 72 64 35 19 5 5 60 95 79 95 29 9 47 5 11
24 7 44 95 100 100 86 88 39 46 48 47 35 46 41 68 64 92 100 100 100 79 6 5 5 5 5 2 0 0 0 5 5 5 80 86 51 5 5 49 77 17 5 19
97 100 100 93 70 87 60 67 43 39 84 100 100 63 23 31 90 100 100 38 5 5 5 5 5 0 0 1 2 2 5 5 5 44 96 96 93 82 92 100 88 83 51 93
74 100 99 93 99 100 100 100 99 100 98 28 8 46 89 100 97 36 10 11 53 100 91 44 3 16 16 15 72 81 88 79 19 5 89 78 100 100 100 100 100 100 83 89
100 99 100 98 100 100 98 80 70 49 43 56 95 100 100 100 51 9 6 14 87 66 5 92 98 90 87 93 89 77 84 61 60 62 85 89 92 100 64 96 90 19 96 100
100 100 100 100 100 100 98 80 84 96 93 99 100 100 93 98 17 19 32 5 5 5 36 12 9 5 3 0 4 5 5 74 92 86 100 89 64 64 71 85 96 42 89 100
100 100 100 100 100 100 100 100 100 100 94 24 6 5 5 5 5 5 5 5 5 47 5 5 5 5 5 12 98 64 5 5 34 48 100 99 97 100 96 58 80 67 86 100
100 100 100 100 100 100 100 100 96 24 5 7 5 5 5 5 5 5 5 5 57 5 5 5 5 93 87 6 5 8 10 74 100 96 79 100 100 100 94 84 100 100 100 100
100 100 100 100 100 100 86 30 5 10 9 5 5 5 5 4 4 5 5 36 5 9 5 6 100 52 5 16 90 100 100 100 100 99 99 100 100 83 100 100 99 99 100 100
100 100 100 100 95 67 56 6 5 5 5 5 5 5 5 5 5 5 74 87 80 78 5 68 88 6 5 98 99 100 96 100 99 100 100 100 100 91 100 100 100 100 100 100
100 97 93 66 5 5 5 5 1 0 4 2 5 5 5 5 13 61 100 17 5 15 94 100 95 23 93 99 100 99 95 99 95 100 100 100 100 100 100 100 100 100 100 100
100 79 14 5 5 5 4 0 3 3 4 5 11 44 5 11 73 58 86 90 94 100 100 100 100 76 96 100 100 100 99 100 100 100 100 100 100 100 100 100 100 100 100 100
45 25 31 6 4 5 5 5 5 5 5 22 65 10 17 96 92 52 92 100 100 100 100 100 100 100 100 100 100 100 100 100 100 100 100 100 100 100 100 100 100 100 100 89
88 82 67 5 5 7 13 13 77 70 56 85 80 5 94 100 100 96 96 98 100 100 100 100 100 100 100 100 100 100 100 100 99 100 100 100 100 100 100 100 100 100 100 100

GFSNGP_prec_cloud_045.txt.gz
Cloud_Cover
100 95 2 23 11 6 24 87 95 9 0 0 0 2 31 28 3 0 0 0 0 4 5 4 24 9 8 85 99 100 100 100 100 100 100 100 94 100 100 100 91 100 100 98
100 4 2 10 1 0 4 1 0 1 4 5 62 33 5 5 0 3 4 0 4 1 5 5 14 5 6 48 100 100 100 100 100 100 100 92 100 100 100 100 100 100 100 100
10 2 5 5 0 0 0 0 0 0 1 5 1 2 0 0 4 1 0 5 1 1 1 4 5 67 5 97 100 100 100 100 99 80 78 100 100 100 100 100 100 100 100 100
5 5 47 0 0 0 0 0 0 5 5 0 0 0 0 0 5 5 5 16 7 5 5 5 5 5 73 78 81 100 100 100 86 97 100 100 100 100 100 100 100 100 100 100
5 5 3 0 3 0 0 0 0 5 0 0 0 0 0 4 5 5 5 5 5 8 5 5 28 97 59 73 97 100 100 100 86 100 100 100 100 100 100 100 100 100 100 100
52 5 4 0 5 0 2 3 5 0 0 0 0 5 5 5 5 5 5 5 5 5 22 51 89 11 5 6 65 100 99 100 100 100 100 100 100 100 100 100 100 100 100 100
28 31 4 5 2 3 5 5 4 3 5 5 5 5 5 5 5 5 24 5 51 100 100 100 64 51 75 100 100 100 100 100 100 100 100 100 100 100 100 100 100 100 100 100
59 83 8 5 5 5 5 5 3 5 5 5 16 5 5 5 53 8 7 94 100 100 38 80 98 100 100 100 100 100 100 100 99 100 100 100 100 100 100 100 100 100 100 100
5 5 5 7 12 30 9 5 5 5 6 26 5 5 19 5 29 100 100 100 100 53 78 100 100 99 100 100 100 100 97 99 99 100 99 100 100 100 100 100 100 100 100 100
5 5 5 30 49 53 63 21 11 22 71 56 72 37 67 100 100 100 100 96 100 97 100 100 99 100 100 100 100 95 100 100 99 99 100 100 98 90 57 5 37 5 22 44
5 5 5 65 54 57 87 32 30 72 56 59 52 85 100 100 100 100 100 100 100 98 93 85 75 72 38 87 82 34 6 53 56 2 2 0 1 5 5 5 5 5 5 5
56 5 9 18 46 37 93 95 100 94 75 54 84 100 83 98 100 100 100 100 79 80 28 22 6 38 47 36 12 8 7 0 0 0 0 1 0 0 0 0 0 2 5 5
33 70 100 100 28 5 43 61 34 9 29 60 59 69 82 29 78 16 18 6 5 5 5 76 100 100 100 22 6 0 0 0 0 0 0 0 0 5 5 3 5 5 5 5
8 66 88 100 52 38 27 11 5 8 42 54 65 90 94 61 6 6 10 11 25 79 100 100 91 53 14 5 5 0 0 0 0 0 1 3 6 36 8 13 7 5 5 27
62 38 49 72 86 67 62 29 64 68 79 100 100 98 36 5 5 38 39 67 83 96 44 37 21 18 5 5 4 5 5 5 5 31 79 93 100 94 78 96 92 59 18 11
100 80 12 35 61 77 74 80 70 100 100 100 80 51 56 10 39 6 7 58 84 95 96 97 97 56 95 97 71 71 72 97 100 100 100 97 96 86 92 95 100 97 96 90
49 16 56 97 100 100 52 56 93 100 99 77 84 100 90 32 7 59 98 91 52 29 100 100 83 93 58 17 5 1 5 5 5 5 14 50 60 30 92 100 98 100 58 9
91 73 99 96 100 100 100 92 86 77 99 100 100 100 94 61 100 100 35 5 5 22 55 12 5 5 1 6 14 46 59 62 36 5 5 5 30 62 87 100 100 100 31 6
100 100 100 100 100 99 100 100 100 100 100 98 74 92 100 100 98 43 15 6 5 5 27 11 5 30 83 55 5 1 4 10 74 89 95 94 99 100 96 100 100 99 72 83
100 100 100 96 100 100 100 100 100 100 100 100 100 100 100 85 44 40 5 5 97 85 14 3 73 66 9 5 21 89 99 100 100 100 100 100 100 97 87 97 100 100 100 99
100 100 100 100 100 100 100 100 100 100 100 100 100 100 94 54 46 8 5 11 95 39 5 56 76 5 5 18 100 99 100 100 99 100 100 100 100 100 100 100 100 100 98 80
100 100 100 100 100 100 100 100 100 100 100 100 100 100 92 45 5 5 68 87 69 5 16 87 60 10 5 49 89 100 100 100 92 100 100 100 100 100 100 100 100 100 96 100
100 100 100 100 100 100 100 100 100 100 100 100 92 33 9 5 5 86 97 98 5 5 5 89 77 5 5 10 93 92 93 100 100 100 100 100 100 100 100 100 100 100 100 100
100 100 100 100 100 100 100 100 100 100 96 33 31 25 5 34 37 9 35 27 41 30 34 27 80 52 5 5 10 80 90 100 100 100 100 100 100 100 100 100 100 100 100 100
100 100 100 100 100 100 100 100 100 57 86 89 9 5 5 99 68 40 52 38 32 32 50 35 61 100 93 54 56 55 96 62 47 95 100 100 100 100 100 100 100 100 100 100
100 100 100 100 100 100 100 100 100 100 100 76 13 13 10 100 99 47 24 27 6 80 62 71 84 86 73 84 59 66 80 46 23 100 61 78 100 100 100 100 100 100 100 100
100 100 100 100 100 100 100 100 100 88 78 61 34 5 86 100 90 33 7 19 15 69 92 89 82 43 5 98 85 76 64 6 17 100 21 10 98 100 100 100 100 100 100 100